Regional Weather Roundup
Issued by NWS

Home | Current Version | Previous Version | Graphics & Text | Print | Product List | Glossary On
Versions: 1 2 3 4 5 6 7 8 9 10 11 12 13 14 15 16 17 18 19 20 21 22 23 24 25 26 27 28 29 30 31 32 33 34 35 36 37 38 39 40 41 42 43 44 45 46 47 48 49 50
000
ASUS43 KDMX 201101
RWRIA

WEATHER ROUNDUP FOR IOWA
NATIONAL WEATHER SERVICE DES MOINES IA
500 AM CST MON NOV 20 2017

NOTE: "FAIR" INDICATES FEW OR NO CLOUDS BELOW 12,000 FEET WITH NO
SIGNIFICANT WEATHER AND/OR OBSTRUCTIONS TO VISIBILITY.

* - THESE STATIONS ARE NOT NWS STATIONS...THUS NOT UNDER NWS
QUALITY CONTROL.  THEY ALSO DO NOT REPORT WEATHER SUCH
AS PRECIPITATION OR FOG.

IAZ001>003-012>014-020>022-031>034-043>046-201200-
   NORTHWEST IOWA

CITY           SKY/WX    TMP DP  RH WIND       PRES   REMARKS
CARROLL *      CLEAR     37  27  65 S21       29.76F WCI  27
CHEROKEE *     CLEAR     31  26  84 S7        29.73F WCI  24
DENISON *      CLEAR     36  25  64 S9G16     29.78F WCI  29
LE MARS *      CLOUDY    30  25  80 S9        29.71F WCI  22
ORANGE CITY *  CLOUDY    34  27  75 S7        29.68F WCI  28
SHELDON *      CLOUDY    30  25  80 SE10      29.67F WCI  21
SIOUX CITY     CLEAR     28  24  85 E9        29.72F WCI  19
SPENCER        CLOUDY    28  22  78 S3        29.71F
STORM LAKE *   CLEAR     34  25  69 SW13      29.73F WCI  25
$$

IAZ055>058-069>071-079>083-090>094-201200-
   SOUTHWEST IOWA

CITY           SKY/WX    TMP DP  RH WIND       PRES   REMARKS
ATLANTIC *     CLOUDY    32  27  80 S9        29.82S WCI  24
AUDUBON *      CLOUDY    37  28  70 S10       29.80F WCI  30
CLARINDA *       N/A     39  28  65 S10       29.87S WCI  32
COUNCIL BLFS * CLOUDY    39  27  60 S10       29.80F WCI  32
CRESTON *      CLOUDY    36  28  75 S12       29.85F WCI  27
HARLAN  *      CLEAR     34  28  80 S9        29.83F WCI  26
LAMONI         CLOUDY    38  29  70 S14       29.87F WCI  30
RED OAK *      CLOUDY    36  28  75 SW8       29.84S WCI  29
SHENANDOAH *   CLOUDY    41  28  60 S9        29.85S
$$

IAZ047>049-059>061-072>074-084-201200-
   CENTRAL IOWA

CITY           SKY/WX    TMP DP  RH WIND       PRES   REMARKS
AMES           CLEAR     33  28  81 SW8       29.82F WCI  26
ANKENY *       CLOUDY    39  27  60 S8        29.85S WCI  34
BOONE *        CLEAR     37  27  65 SW9       29.80S WCI  31
CHARITON *     CLOUDY    37  30  75 S14       29.87F WCI  29
DES MOINES     PTCLDY    37  28  70 S9        29.84F WCI  30
GRINNELL*      CLOUDY    33  28  81 S8        29.86F WCI  26
KNOXVILLE *    CLOUDY    41  27  56 S14G21    29.84F
MARSHALLTOWN   CLEAR     37  28  70 S12       29.82F WCI  29
NEWTON *       PTCLDY    39  28  65 SW15      29.84F WCI  31
PELLA *        PTCLDY    40  28  63 SW9G17    29.88F WCI  34
$$

IAZ004>006-015-016-023>025-035-036-201200-
   NORTH CENTRAL IOWA

CITY           SKY/WX    TMP DP  RH WIND       PRES   REMARKS
ALGONA *       CLEAR     32  28  86 S14       29.74F WCI  22
CLARION *      CLEAR     30  30 100 S9        29.78S WCI  22
ESTHERVILLE    CLOUDY    25  23  92 S8        29.71F WCI  16
FORT DODGE *   CLEAR     33  25  72 S9        29.77F WCI  25
MASON CITY     CLEAR     30  25  81 S12       29.78F WCI  20
FOREST CITY *    N/A     30  27  86 S5        29.77S WCI  25
WEBSTER CITY * CLEAR     32  25  74 S7        29.77F WCI  26
IOWA FALLS *     N/A     34  28  79 S10       29.80F WCI  26
$$

IAZ007>011-017>019-026>030-037>042-050>054-066-201200-
   NORTHEAST IOWA

CITY           SKY/WX    TMP DP  RH WIND       PRES   REMARKS
CEDAR RAPIDS   CLEAR     32  27  81 S9        29.86F WCI  24
CHARLES CITY * CLEAR     30  30 100 S8        29.80F WCI  23
CLINTON *      CLOUDY    31  26  82 S3        29.93F
DECORAH *      CLEAR     34  27  75 S6        29.79F WCI  29
DUBUQUE        CLEAR     29  25  85 S9        29.87F WCI  20
MONTICELLO *   CLEAR     30  27  86 SE6       29.88S WCI  24
OELWEIN *      CLEAR     28  28 100 SE7       29.84S WCI  21
WATERLOO       CLEAR     32  25  75 S5        29.83S WCI  27
$$

IAZ064-065-067-068-078-201200-
   EAST CENTRAL IOWA

CITY           SKY/WX    TMP DP  RH WIND       PRES   REMARKS
DAVENPORT      PTCLDY    33  26  75 S9        29.94F WCI  25
IOWA CITY      PTCLDY    33  26  75 S5        29.91F WCI  29
MT. PLEASANT * CLOUDY    33  28  79 S12       29.93F WCI  25
MUSCATINE *    CLOUDY    36  28  75 SE6       29.93F WCI  31
QUAD CITIES    CLOUDY    35  25  66 SW5       29.93F WCI  31
$$

IAZ062-063-075>077-085>089-095>099-201200-
   SOUTHEAST IOWA

CITY           SKY/WX    TMP DP  RH WIND       PRES   REMARKS
BURLINGTON     CLOUDY    35  28  75 S10       29.95F WCI  27
FAIRFIELD *    CLOUDY    39  28  65 S13       29.90F WCI  32
FORT MADISON * CLOUDY    37  28  70 S12       29.95F WCI  30
KEOKUK *       CLOUDY    37  28  70 S10       29.95F WCI  30
OSKALOOSA *      N/A     37  29  72 SW12      29.89F WCI  30
OTTUMWA        PTCLDY    40  28  62 SW16      29.88F WCI  31
WASHINGTON *   CLOUDY    34  30  86 S9        29.91F WCI  26
$$

ABBREVIATIONS USED IN REMARKS
   TC - TEMPERATURES IN CELSIUS
  WCI - WIND CHILL INDEX
   HX - HEAT INDEX
  VSB - VISIBILITY
$$




USA.gov is the U.S. government's official web portal to all federal, state and local government web resources and services.